When you browse on this site, cookies collect data to enhance your experience and personalize the content and advertising you see.
Visit our Privacy Policy to learn more. By continuing to use the site, you agree to this use of cookies and data.
EN

Hourly Weather Alhimovo

Today, 11 August, Tuesday

Time Temperature Precipitation Wind Pressure Humidity
00:00 +13°C° 0 mm 2 mps 761 mmHg 77%
01:00 +13°C° 0 mm 2 mps 761 mmHg 80%
02:00 +12°C° 0 mm 2 mps 761 mmHg 84%
03:00 +12°C° 0 mm 2 mps 761 mmHg 87%
04:00 +12°C° 0 mm 2 mps 761 mmHg 89%
05:00 +12°C° 0 mm 1 mps 761 mmHg 92%
06:00 +13°C° 0 mm 2 mps 762 mmHg 85%
07:00 +14°C° 0 mm 3 mps 762 mmHg 78%
08:00 +17°C° 0 mm 3 mps 762 mmHg 71%
09:00 +18°C° 0 mm 4 mps 762 mmHg 67%
10:00 +19°C° 0 mm 4 mps 762 mmHg 63%
11:00 +19°C° 0 mm 4 mps 761 mmHg 60%
12:00 +20°C° 0.1 mm 4 mps 761 mmHg 58%
13:00 +20°C° 0.1 mm 4 mps 762 mmHg 57%
14:00 +20°C° 0.1 mm 4 mps 762 mmHg 56%
15:00 +20°C° 0.1 mm 4 mps 762 mmHg 58%
16:00 +19°C° 0.1 mm 4 mps 762 mmHg 59%
17:00 +19°C° 0.1 mm 4 mps 762 mmHg 61%
18:00 +17°C° 0 mm 4 mps 762 mmHg 66%
19:00 +16°C° 0 mm 3 mps 762 mmHg 71%
20:00 +13°C° 0 mm 3 mps 762 mmHg 77%
21:00 +13°C° 0 mm 2 mps 762 mmHg 79%
22:00 +12°C° 0 mm 2 mps 763 mmHg 82%
23:00 +12°C° 0 mm 2 mps 763 mmHg 84%

Tomorrow, 12 August, Wednesday

Time Temperature Precipitation Wind Pressure Humidity
00:00 +10°C° 0 mm 2 mps 763 mmHg 86%
01:00 +10°C° 0 mm 2 mps 763 mmHg 88%
02:00 +9°C° 0 mm 2 mps 763 mmHg 89%
03:00 +9°C° 0 mm 2 mps 763 mmHg 89%
04:00 +9°C° 0 mm 2 mps 763 mmHg 89%
05:00 +9°C° 0 mm 2 mps 763 mmHg 89%
06:00 +12°C° 0 mm 2 mps 763 mmHg 81%
07:00 +12°C° 0 mm 3 mps 763 mmHg 73%
08:00 +14°C° 0 mm 3 mps 763 mmHg 66%
09:00 +16°C° 0 mm 3 mps 763 mmHg 60%
10:00 +17°C° 0 mm 3 mps 763 mmHg 55%
11:00 +18°C° 0 mm 3 mps 763 mmHg 50%
12:00 +18°C° 0 mm 3 mps 763 mmHg 51%
13:00 +18°C° 0 mm 3 mps 763 mmHg 52%
14:00 +18°C° 0 mm 3 mps 763 mmHg 54%
15:00 +18°C° 0 mm 3 mps 762 mmHg 55%
16:00 +18°C° 0 mm 3 mps 762 mmHg 57%
17:00 +18°C° 0 mm 2 mps 762 mmHg 59%
18:00 +17°C° 0 mm 2 mps 762 mmHg 64%
19:00 +16°C° 0 mm 2 mps 762 mmHg 69%
20:00 +14°C° 0 mm 1 mps 762 mmHg 74%
21:00 +13°C° 0 mm 1 mps 762 mmHg 77%
22:00 +13°C° 0 mm 1 mps 762 mmHg 80%
23:00 +12°C° 0 mm 1 mps 762 mmHg 83%

Day after tomorrow, 13 August, Thursday

Time Temperature Precipitation Wind Pressure Humidity
00:00 +12°C° 0 mm 1 mps 762 mmHg 84%
01:00 +11°C° 0 mm 1 mps 762 mmHg 86%
02:00 +11°C° 0 mm 1 mps 762 mmHg 87%
03:00 +11°C° 0 mm 1 mps 762 mmHg 85%
04:00 +12°C° 0 mm 1 mps 762 mmHg 83%
05:00 +12°C° 0 mm 1 mps 761 mmHg 80%
06:00 +13°C° 0 mm 1 mps 761 mmHg 79%
07:00 +13°C° 0 mm 0 mps 761 mmHg 77%
08:00 +13°C° 0 mm 0 mps 761 mmHg 75%
09:00 +15°C° 0 mm 0 mps 761 mmHg 71%
10:00 +16°C° 0 mm 0 mps 761 mmHg 66%
11:00 +19°C° 0 mm 1 mps 761 mmHg 62%
12:00 +19°C° 0 mm 1 mps 761 mmHg 61%
13:00 +19°C° 0 mm 1 mps 760 mmHg 61%
14:00 +19°C° 0 mm 2 mps 760 mmHg 61%
15:00 +18°C° 0 mm 2 mps 760 mmHg 64%
16:00 +18°C° 0 mm 2 mps 760 mmHg 67%
17:00 +18°C° 0 mm 2 mps 760 mmHg 70%
18:00 +18°C° 0 mm 1 mps 760 mmHg 77%
19:00 +15°C° 0 mm 1 mps 760 mmHg 83%
20:00 +14°C° 0 mm 1 mps 760 mmHg 90%
21:00 +14°C° 0 mm 1 mps 760 mmHg 90%
22:00 +14°C° 0 mm 1 mps 760 mmHg 90%
23:00 +14°C° 0 mm 1 mps 760 mmHg 90%

14 August, Friday

Time Temperature Precipitation Wind Pressure Humidity
00:00 +14°C° 0.1 mm 1 mps 760 mmHg 91%
01:00 +14°C° 0.1 mm 1 mps 760 mmHg 91%
02:00 +14°C° 0.1 mm 1 mps 760 mmHg 92%
03:00 +14°C° 0 mm 1 mps 759 mmHg 93%
04:00 +14°C° 0 mm 2 mps 759 mmHg 93%
05:00 +13°C° 0 mm 2 mps 759 mmHg 94%
06:00 +15°C° 0 mm 1 mps 759 mmHg 90%
07:00 +16°C° 0 mm 1 mps 759 mmHg 87%
08:00 +18°C° 0 mm 1 mps 759 mmHg 83%
09:00 +19°C° 0.1 mm 1 mps 759 mmHg 79%
10:00 +20°C° 0.1 mm 2 mps 759 mmHg 74%
11:00 +21°C° 0.1 mm 2 mps 759 mmHg 70%
12:00 +21°C° 0.3 mm 2 mps 758 mmHg 70%
13:00 +23°C° 0.3 mm 2 mps 758 mmHg 70%
14:00 +23°C° 0.3 mm 2 mps 758 mmHg 70%
15:00 +23°C° 0.4 mm 2 mps 758 mmHg 72%
16:00 +23°C° 0.4 mm 2 mps 757 mmHg 74%
17:00 +21°C° 0.4 mm 2 mps 757 mmHg 76%
18:00 +20°C° 0.3 mm 2 mps 757 mmHg 81%
19:00 +19°C° 0.3 mm 2 mps 757 mmHg 86%
20:00 +19°C° 0.3 mm 1 mps 757 mmHg 91%
21:00 +17°C° 0 mm 2 mps 757 mmHg 92%
22:00 +16°C° 0 mm 2 mps 757 mmHg 92%
23:00 +16°C° 0 mm 2 mps 757 mmHg 93%

15 August, Saturday

Time Temperature Precipitation Wind Pressure Humidity
00:00 +15°C° 0.4 mm 2 mps 757 mmHg 93%
01:00 +15°C° 0.4 mm 2 mps 757 mmHg 93%
02:00 +15°C° 0.4 mm 2 mps 757 mmHg 94%
03:00 +15°C° 0.1 mm 2 mps 757 mmHg 94%
04:00 +14°C° 0.1 mm 2 mps 757 mmHg 95%
05:00 +14°C° 0.1 mm 2 mps 757 mmHg 95%
06:00 +15°C° 0 mm 2 mps 756 mmHg 92%
07:00 +17°C° 0 mm 2 mps 756 mmHg 89%
08:00 +18°C° 0 mm 2 mps 756 mmHg 86%
09:00 +19°C° 0 mm 3 mps 756 mmHg 79%
10:00 +21°C° 0 mm 3 mps 756 mmHg 72%
11:00 +22°C° 0 mm 3 mps 756 mmHg 64%
12:00 +22°C° 1.1 mm 3 mps 756 mmHg 68%
13:00 +22°C° 1.1 mm 3 mps 756 mmHg 72%
14:00 +22°C° 1.1 mm 4 mps 756 mmHg 75%
15:00 +22°C° 1.5 mm 3 mps 756 mmHg 77%
16:00 +22°C° 1.5 mm 3 mps 756 mmHg 78%
17:00 +22°C° 1.5 mm 3 mps 756 mmHg 80%
18:00 +20°C° 0.2 mm 2 mps 756 mmHg 83%
19:00 +19°C° 0.2 mm 2 mps 756 mmHg 87%
20:00 +18°C° 0.2 mm 1 mps 756 mmHg 91%
21:00 +18°C° 0 mm 1 mps 756 mmHg 93%
22:00 +16°C° 0 mm 1 mps 757 mmHg 94%
23:00 +15°C° 0 mm 2 mps 757 mmHg 96%

16 August, Sunday

Time Temperature Precipitation Wind Pressure Humidity
00:00 +15°C° 0 mm 1 mps 757 mmHg 96%
01:00 +14°C° 0 mm 1 mps 758 mmHg 96%
02:00 +14°C° 0 mm 1 mps 758 mmHg 97%
03:00 +14°C° 0 mm 1 mps 758 mmHg 97%
04:00 +13°C° 0 mm 2 mps 758 mmHg 97%
05:00 +13°C° 0 mm 2 mps 759 mmHg 98%
06:00 +14°C° 0 mm 2 mps 759 mmHg 96%
07:00 +15°C° 0 mm 2 mps 759 mmHg 93%
08:00 +16°C° 0 mm 3 mps 759 mmHg 91%
09:00 +17°C° 0 mm 3 mps 759 mmHg 84%
10:00 +19°C° 0 mm 3 mps 760 mmHg 78%
11:00 +20°C° 0 mm 3 mps 760 mmHg 71%
12:00 +21°C° 0 mm 3 mps 760 mmHg 65%
13:00 +22°C° 0 mm 3 mps 760 mmHg 58%
14:00 +24°C° 0 mm 3 mps 760 mmHg 52%
15:00 +24°C° 0 mm 3 mps 760 mmHg 53%
16:00 +24°C° 0 mm 3 mps 760 mmHg 55%
17:00 +22°C° 0 mm 3 mps 760 mmHg 56%
18:00 +20°C° 0 mm 3 mps 760 mmHg 62%
19:00 +18°C° 0 mm 3 mps 761 mmHg 69%
20:00 +16°C° 0 mm 2 mps 761 mmHg 75%
21:00 +15°C° 0 mm 2 mps 761 mmHg 77%
22:00 +14°C° 0 mm 2 mps 762 mmHg 80%
23:00 +13°C° 0 mm 2 mps 762 mmHg 82%
Show more